Météo par heure à Alida

Ce jour, 29 Octobre, Jeudi

Heure Température Précipitation Vent Pression Humidité
00:00 -4°C° 0 mm 2 m/s 714 mmHg 94%
01:00 -4°C° 0 mm 2 m/s 714 mmHg 95%
02:00 -4°C° 0 mm 2 m/s 714 mmHg 96%
03:00 -3°C° 0 mm 2 m/s 713 mmHg 96%
04:00 -3°C° 0 mm 2 m/s 713 mmHg 95%
05:00 -2°C° 0 mm 2 m/s 713 mmHg 95%
06:00 -2°C° 0 mm 2 m/s 712 mmHg 93%
07:00 -2°C° 0 mm 2 m/s 712 mmHg 91%
08:00 -1°C° 0 mm 2 m/s 712 mmHg 90%
09:00 -1°C° 0 mm 2 m/s 711 mmHg 86%
10:00 +1°C° 0 mm 2 m/s 711 mmHg 83%
11:00 +2°C° 0 mm 2 m/s 711 mmHg 80%
12:00 +2°C° 0 mm 2 m/s 710 mmHg 81%
13:00 +2°C° 0 mm 2 m/s 710 mmHg 83%
14:00 +3°C° 0 mm 1 m/s 710 mmHg 85%
15:00 +2°C° 0.2 mm 1 m/s 710 mmHg 89%
16:00 +2°C° 0.2 mm 1 m/s 710 mmHg 94%
17:00 +1°C° 0.2 mm 1 m/s 710 mmHg 99%
18:00 +1°C° 0 mm 1 m/s 710 mmHg 98%
19:00 +1°C° 0 mm 1 m/s 711 mmHg 98%
20:00 +1°C° 0 mm 1 m/s 711 mmHg 98%
21:00 +1°C° 0 mm 1 m/s 711 mmHg 97%
22:00 +1°C° 0 mm 1 m/s 712 mmHg 97%
23:00 +1°C° 0 mm 1 m/s 712 mmHg 97%

Demain, 30 Octobre, Vendredi

Heure Température Précipitation Vent Pression Humidité
00:00 +1°C° 0 mm 1 m/s 712 mmHg 97%
01:00 +1°C° 0 mm 1 m/s 712 mmHg 97%
02:00 +1°C° 0 mm 1 m/s 712 mmHg 97%
03:00 +1°C° 0 mm 1 m/s 712 mmHg 97%
04:00 +1°C° 0 mm 1 m/s 712 mmHg 97%
05:00 -1°C° 0 mm 2 m/s 712 mmHg 97%
06:00 -1°C° 0 mm 2 m/s 711 mmHg 97%
07:00 0°C° 0 mm 3 m/s 711 mmHg 96%
08:00 0°C° 0 mm 3 m/s 711 mmHg 96%
09:00 0°C° 0 mm 4 m/s 710 mmHg 93%
10:00 0°C° 0 mm 5 m/s 709 mmHg 90%
11:00 +1°C° 0 mm 6 m/s 708 mmHg 87%
12:00 +2°C° 0 mm 6 m/s 707 mmHg 84%
13:00 +2°C° 0 mm 7 m/s 706 mmHg 82%
14:00 +2°C° 0 mm 8 m/s 704 mmHg 79%
15:00 +3°C° 0 mm 7 m/s 703 mmHg 80%
16:00 +2°C° 0 mm 7 m/s 702 mmHg 82%
17:00 +2°C° 0 mm 7 m/s 700 mmHg 84%
18:00 +2°C° 0 mm 7 m/s 700 mmHg 84%
19:00 +3°C° 0 mm 7 m/s 699 mmHg 85%
20:00 +3°C° 0 mm 7 m/s 699 mmHg 85%
21:00 +4°C° 0 mm 7 m/s 698 mmHg 81%
22:00 +4°C° 0 mm 7 m/s 697 mmHg 76%
23:00 +5°C° 0 mm 7 m/s 697 mmHg 72%

Après-demain, 31 Octobre, Samedi

Heure Température Précipitation Vent Pression Humidité
00:00 +4°C° 0 mm 7 m/s 697 mmHg 73%
01:00 +4°C° 0 mm 7 m/s 697 mmHg 75%
02:00 +3°C° 0 mm 7 m/s 697 mmHg 76%
03:00 +2°C° 0 mm 8 m/s 698 mmHg 77%
04:00 +1°C° 0 mm 9 m/s 698 mmHg 77%
05:00 +1°C° 0 mm 9 m/s 699 mmHg 78%
06:00 0°C° 0 mm 10 m/s 701 mmHg 76%
07:00 -3°C° 0 mm 11 m/s 702 mmHg 74%
08:00 -4°C° 0 mm 11 m/s 703 mmHg 72%
09:00 -4°C° 0 mm 11 m/s 704 mmHg 69%
10:00 -5°C° 0 mm 12 m/s 705 mmHg 65%
11:00 -5°C° 0 mm 12 m/s 706 mmHg 62%
12:00 -6°C° 0 mm 12 m/s 707 mmHg 61%
13:00 -6°C° 0 mm 11 m/s 708 mmHg 60%
14:00 -6°C° 0 mm 11 m/s 709 mmHg 59%
15:00 -7°C° 0 mm 10 m/s 710 mmHg 62%
16:00 -7°C° 0 mm 10 m/s 711 mmHg 64%
17:00 -8°C° 0 mm 9 m/s 712 mmHg 66%
18:00 -8°C° 0 mm 9 m/s 713 mmHg 67%
19:00 -8°C° 0 mm 8 m/s 714 mmHg 68%
20:00 -8°C° 0 mm 7 m/s 715 mmHg 69%
21:00 -8°C° 0 mm 7 m/s 716 mmHg 71%
22:00 -9°C° 0 mm 6 m/s 717 mmHg 72%
23:00 -8°C° 0 mm 5 m/s 718 mmHg 74%

1 Novembre, Dimanche

Heure Température Précipitation Vent Pression Humidité
00:00 -10°C° 0 mm 5 m/s 718 mmHg 75%
01:00 -9°C° 0 mm 4 m/s 719 mmHg 77%
02:00 -9°C° 0 mm 4 m/s 720 mmHg 79%
03:00 -8°C° 0 mm 3 m/s 720 mmHg 81%
04:00 -8°C° 0 mm 3 m/s 720 mmHg 83%
05:00 -9°C° 0 mm 3 m/s 720 mmHg 84%
06:00 -8°C° 0 mm 3 m/s 720 mmHg 83%
07:00 -7°C° 0 mm 3 m/s 721 mmHg 81%
08:00 -7°C° 0 mm 3 m/s 721 mmHg 79%
09:00 -5°C° 0 mm 3 m/s 721 mmHg 71%
10:00 -2°C° 0 mm 4 m/s 721 mmHg 62%
11:00 0°C° 0 mm 4 m/s 721 mmHg 53%
12:00 +1°C° 0 mm 4 m/s 720 mmHg 48%
13:00 +2°C° 0 mm 5 m/s 720 mmHg 43%
14:00 +3°C° 0 mm 5 m/s 719 mmHg 39%
15:00 +1°C° 0 mm 4 m/s 719 mmHg 44%
16:00 0°C° 0 mm 4 m/s 718 mmHg 49%
17:00 -1°C° 0 mm 3 m/s 718 mmHg 54%
18:00 -2°C° 0 mm 4 m/s 718 mmHg 54%
19:00 -2°C° 0 mm 4 m/s 717 mmHg 55%
20:00 -3°C° 0 mm 4 m/s 717 mmHg 56%
21:00 -3°C° 0 mm 4 m/s 716 mmHg 55%
22:00 -3°C° 0 mm 4 m/s 715 mmHg 55%
23:00 -2°C° 0 mm 4 m/s 715 mmHg 55%

2 Novembre, Lundi

Heure Température Précipitation Vent Pression Humidité
00:00 -2°C° 0 mm 4 m/s 714 mmHg 57%
01:00 -2°C° 0 mm 4 m/s 714 mmHg 59%
02:00 -3°C° 0 mm 4 m/s 713 mmHg 62%
03:00 -3°C° 0 mm 4 m/s 713 mmHg 65%
04:00 -3°C° 0 mm 4 m/s 713 mmHg 69%
05:00 -3°C° 0 mm 4 m/s 712 mmHg 72%
06:00 -2°C° 0 mm 4 m/s 712 mmHg 71%
07:00 -1°C° 0 mm 4 m/s 712 mmHg 70%
08:00 0°C° 0 mm 4 m/s 712 mmHg 69%
09:00 +3°C° 0 mm 4 m/s 712 mmHg 63%
10:00 +5°C° 0 mm 4 m/s 711 mmHg 58%
11:00 +8°C° 0 mm 4 m/s 711 mmHg 52%
12:00 +8°C° 0 mm 4 m/s 711 mmHg 50%
13:00 +10°C° 0 mm 3 m/s 710 mmHg 49%
14:00 +11°C° 0 mm 3 m/s 709 mmHg 47%
15:00 +10°C° 0 mm 3 m/s 709 mmHg 51%
16:00 +8°C° 0 mm 3 m/s 708 mmHg 55%
17:00 +7°C° 0 mm 3 m/s 707 mmHg 59%
18:00 +5°C° 0 mm 3 m/s 707 mmHg 61%
19:00 +5°C° 0 mm 3 m/s 706 mmHg 63%
20:00 +4°C° 0 mm 3 m/s 705 mmHg 65%
21:00 +4°C° 0 mm 3 m/s 705 mmHg 67%
22:00 +4°C° 0 mm 3 m/s 704 mmHg 68%
23:00 +4°C° 0 mm 3 m/s 703 mmHg 70%

3 Novembre, Mardi

Heure Température Précipitation Vent Pression Humidité
00:00 +4°C° 0 mm 4 m/s 703 mmHg 69%
01:00 +5°C° 0 mm 4 m/s 702 mmHg 68%
02:00 +5°C° 0 mm 5 m/s 702 mmHg 67%
03:00 +5°C° 0 mm 5 m/s 702 mmHg 66%
04:00 +4°C° 0 mm 6 m/s 701 mmHg 65%
05:00 +4°C° 0 mm 6 m/s 701 mmHg 64%
06:00 +4°C° 0 mm 6 m/s 701 mmHg 62%
07:00 +5°C° 0 mm 7 m/s 701 mmHg 60%
08:00 +5°C° 0 mm 7 m/s 701 mmHg 57%
09:00 +8°C° 0 mm 7 m/s 701 mmHg 50%
10:00 +10°C° 0 mm 8 m/s 701 mmHg 43%
11:00 +12°C° 0 mm 8 m/s 701 mmHg 36%
12:00 +13°C° 0 mm 8 m/s 701 mmHg 34%
13:00 +15°C° 0 mm 8 m/s 701 mmHg 32%
14:00 +16°C° 0 mm 8 m/s 701 mmHg 30%
15:00 +15°C° 0 mm 7 m/s 701 mmHg 35%
16:00 +13°C° 0 mm 6 m/s 701 mmHg 40%
17:00 +12°C° 0 mm 5 m/s 701 mmHg 45%
18:00 +10°C° 0 mm 5 m/s 701 mmHg 48%
19:00 +9°C° 0 mm 5 m/s 702 mmHg 51%
20:00 +8°C° 0 mm 6 m/s 702 mmHg 54%
21:00 +7°C° 0 mm 5 m/s 703 mmHg 59%
22:00 +6°C° 0 mm 5 m/s 703 mmHg 64%
23:00 +5°C° 0 mm 4 m/s 703 mmHg 69%
Voir plus

Nous avons besoin de votre consentement

Meteoprog et ses fournisseurs de services peuvent stocker et accéder à des données personnelles telles que des cookies, des identifiants d'appareils ou d'autres technologies similaires sur votre appareil et traiter ces données pour personnaliser le contenu et les publicités, ainsi que pour fournir des fonctionnalités de médias sociaux et analyser le trafic.

  • Stocker et/ou accéder à des informations sur votre appareil

    Des cookies, des identifiants d'appareils ou d'autres informations peuvent être stockés ou accessibles sur votre appareil aux fins indiquées ci-dessus.

  • Annonces et contenus personnalisés, mesure des annonces et des contenus, connaissance de l'audience et développement de produits

    Les annonces et le contenu peuvent être personnalisés en fonction d'un profil. D'autres données peuvent être ajoutées pour mieux personnaliser les annonces et le contenu. Les performances des publicités et du contenu peuvent être mesurées. Il est possible d'obtenir des informations sur le public qui a vu les publicités et le contenu. Ces données peuvent être utilisées pour développer ou améliorer l'expérience de l'utilisateur, les systèmes et les logiciels.

En cliquant sur "J'accepte", vous autorisez l'utilisation de cookies, des identifiants d'appareils, des balises web ou d'autres technologies similaires. Vos paramètres peuvent être modifiés dans le navigateur de votre appareil.

Dans certains cas, des intérêts légitimes peuvent être invoqués plutôt qu'un consentement. Vous pouvez en savoir plus à ce sujet dans notre Politique de confidentialité et de cookies.